[ hide orbit diagram ]
For accurate long-term ephemerides, please instead use our Horizons system.This orbit viewer was implemented using two-body methods, and hence should not be used for determining accurate long-term trajectories (over several years or decades) or planetary encounter circumstances.
Orbital Elements at Epoch 2459200.5 (2020-Dec-17.0) TDB
Reference: JPL 19 (heliocentric ecliptic J2000)
Element | Value | Uncertainty (1-sigma) | Units |
e | .03207799642874389 | 4.1269e-08 | |
a | 3.144342732390045 | 2.5676e-08 | au |
q | 3.043478517449691 | 1.2995e-07 | au |
i | 21.63956005033134 | 5.7757e-06 | deg |
node | 314.1926552914892 | 1.2015e-05 | deg |
peri | 85.51272550245967 | 9.1728e-05 | deg |
M | 189.5538872116087 | 8.9786e-05 | deg |
tp | 2460164.723793529142 (2023-Aug-08.22379353) | 0.00050906 | TDB |
period | 2036.541402979609 5.58 | 2.4945e-05 6.83e-08 | d yr |
n | .1767702829283479 | 2.1652e-09 | deg/d |
Q | 3.2452069473304 | 2.6499e-08 | au |
|
| | Orbit Determination Parameters
Additional Information
|
[ show covariance matrix ]
Physical Parameter Table
Parameter |
Symbol |
Value |
Units |
Sigma |
Reference |
Notes |
absolute magnitude |
H |
14.03 |
|
n/a |
E2021B10 |
|
diameter |
diameter |
8.300 |
km |
0.418 |
urn:nasa:pds:neowise_diameters_albedos::2.0[mainbelt] (http://adsabs.harvard.edu/abs/2011ApJ...741...68M) |
|
geometric albedo |
albedo |
0.093 |
|
0.018 |
urn:nasa:pds:neowise_diameters_albedos::2.0[mainbelt] (http://adsabs.harvard.edu/abs/2011ApJ...741...68M) |
|
|
56948 (2000 RR98) Discovered 2000-Sep-05 by LONEOS at Anderson Mesa |
Reference: 20030318/Numbers.arc | Last Updated: 2004-04-19 |
|
[ hide close-approach data ]
Close-Approach Data ...sorted by Date/Time (TDB)
|
Date/Time (TDB) |
Time Uncertainty (days_HH:MM) |
Body |
Nominal Distance (au) |
Minimum Distance (au) |
Maximum Distance (au) |
V-relative (km/s) |
V-infinity (km/s) |
JD (TDB) |
Time Uncertainty (minutes) |
Semi-major axis (km) |
Semi-minor axis (km) |
range-LOV angle (deg) |
N-sigma |
BP |
Orbit Ref. |
Reference |
Modified |
1938-Sep-19 19:47 |
00:03 |
Jupiter |
1.97179478200586 |
1.97179385313631 |
1.97179571087867 |
6.78324095365489 |
6.71961451451021 |
2429161.324157337 |
2.51957787819459 |
301.057119863836 |
42.2220190931669 |
-86.1790392386055 |
4068108.84426027 |
T |
19 |
CATAB v2.0f-lin.ifort 2020-Nov-12 22:57:13 |
2020-Nov-12 22:57 |
2139-Jul-02 20:41 |
00:04 |
Jupiter |
1.99571776447436 |
1.99571607996951 |
1.99571944908608 |
6.89329821871079 |
6.83145082320795 |
2502496.361555676 |
3.98181884893007 |
760.425865194266 |
20.0869218870898 |
83.827592348869 |
3918847.7609816 |
T |
19 |
CATAB v2.0f-lin.ifort 2020-Nov-12 22:57:13 |
2020-Nov-12 22:57 |
|
|